sat.trackr.live / text

‹ back to catalog

TELSTAR 18V

NORAD 43611 · 2018-069A

PAYLOAD ACTIVE UNKNOWN

§ Identity

Operator
Country
CA
Launch date
2018-09-10
Launch site
AFETR
Launch vehicle
Mass (kg)
RCS (m²)

Purposes: comms

External: N2YO · Heavens-Above · Gunter

§ Orbital elements

Epoch: 2026-09-19T08:07:38.686944Z

Period
1,436.10 min
Inclination
0.0151°
Eccentricity
0.0001817
Mean motion
1.00271222 rev/d
Perigee alt
35,779.1 km
Apogee alt
35,794.4 km
Semi-major
42,164.9 km
B*
0.0000e+0
RAAN
240.5245°
Arg perigee
292.4244°
Mean anomaly
85.2245°
Rev number
2,958

§ Raw data

TELSTAR 18V1 43611U 18069A   26262.33864221 -.00000298  00000+0  00000+0 0  99942 43611   0.0151 240.5245 0001817 292.4244  85.2245  1.00271222 29587

JSON: /api/v1/satellites/43611 · /tle

For live sub-satellite position, see the globe view (requires WebGL).

§ Visibility from observer

Set your observer location to see the next 7 days of passes ≥ 10°. The values pass through the URL so the page stays shareable.

No JS? Fill the form by hand. The geolocation button needs JavaScript.